GW1159 Weather Reports


time (UTC)temp
C
wind
direction
speed
KPH
gust
KPH
rain 1hr
cm
rain 24hr
cm
rain mn
cm
humidity
%
barometer
mb
20260506215048 13 0 0.0 3.2 0.00 3.25 3.25 81 1011.3
20260506214556 13 0 0.0 3.2 0.00 3.25 3.25 80 1011.3
20260506214051 12 0 0.0 3.2 0.00 3.25 3.25 80 1011.2
20260506213551 13 0 0.0 3.2 0.00 3.25 3.25 81 1011.2
20260506213056 13 106 0.0 1.6 0.00 3.25 3.25 80 1011.3
20260506212551 13 134 0.0 1.6 0.00 3.25 3.25 80 1011.2
20260506212051 13 0 0.0 1.6 0.00 3.25 3.25 79 1011.2
20260506211554 13 0 0.0 1.6 0.00 3.25 3.25 79 1011.2
20260506211050 13 0 0.0 1.6 0.00 3.25 3.25 78 1011.2
20260506210554 13 0 0.0 3.2 0.00 3.25 3.25 76 1011.1
20260506210053 14 0 0.0 3.2 0.00 3.25 3.25 75 1011.1
20260506205550 14 0 0.0 1.6 0.00 3.25 3.25 72 1011.1
20260506205051 14 0 0.0 1.6 0.00 3.25 3.25 73 1011.0
20260506204555 14 167 0.0 1.6 0.00 3.25 3.25 73 1010.9
20260506204055 14 0 0.0 3.2 0.00 3.25 3.25 73 1011.0
20260506203551 14 155 0.0 3.2 0.00 3.25 3.25 73 1011.1
20260506203053 14 158 0.0 1.6 0.00 3.25 3.25 74 1011.0
20260506202553 14 0 0.0 1.6 0.00 3.25 3.25 74 1011.0
20260506202051 13 137 0.0 1.6 0.00 3.25 3.25 75 1010.9
20260506201553 13 0 0.0 1.6 0.00 3.25 3.25 76 1010.9
20260506201046 13 129 0.0 1.6 0.00 3.25 3.25 77 1010.8
20260506200547 13 136 0.0 1.6 0.00 3.25 3.25 77 1010.8
20260506200056 14 98 0.0 0.0 0.00 3.25 3.25 76 1010.8
20260506195551 14 0 0.0 0.0 0.00 3.25 3.25 76 1010.7
20260506195047 14 0 0.0 1.6 0.00 3.25 3.25 75 1010.7
20260506194552 15 0 0.0 1.6 0.00 3.25 3.25 75 1010.6
20260506194047 15 0 0.0 1.6 0.00 3.25 3.25 74 1010.6
20260506193546 15 0 0.0 3.2 0.00 3.25 3.25 75 1010.6
20260506193049 15 0 0.0 3.2 0.00 3.25 3.25 75 1010.3
20260506192549 15 115 0.0 3.2 0.00 3.25 3.25 73 1010.2
20260506192049 15 0 0.0 1.6 0.00 3.25 3.25 73 1010.2
20260506191553 15 0 0.0 0.0 0.00 3.25 3.25 71 1010.0
20260506191048 15 0 0.0 4.8 0.00 3.25 3.25 71 1009.9
20260506190547 16 0 0.0 4.8 0.00 3.25 3.25 71 1009.9
20260506190053 16 103 0.0 3.2 0.00 3.25 3.25 69 1009.8
20260506185547 16 0 0.0 4.8 0.00 3.25 3.25 67 1009.8
20260506185046 16 0 0.0 4.8 0.00 3.25 3.25 70 1009.7
20260506184558 16 0 0.0 4.8 0.00 3.25 3.25 68 1009.6
20260506184047 16 0 0.0 4.8 0.00 3.25 3.25 69 1009.6
20260506183547 16 65 1.6 4.8 0.00 3.25 3.25 67 1009.6
20260506183057 16 69 0.0 6.4 0.00 3.25 3.25 68 1009.5
20260506182546 16 82 1.6 6.4 0.00 3.25 3.25 68 1009.5
20260506182047 16 3 0.0 6.4 0.00 3.25 3.25 68 1009.5
20260506181552 16 0 0.0 1.6 0.00 3.25 3.25 67 1009.4
20260506181048 16 0 0.0 3.2 0.00 3.25 3.25 69 1009.4
20260506180548 17 314 0.0 6.4 0.00 3.25 3.25 67 1009.2
20260506180052 17 0 0.0 6.4 0.00 3.25 3.25 69 1009.3
20260506175548 17 224 1.6 6.4 0.00 3.25 3.25 68 1009.2
20260506175047 17 0 0.0 6.4 0.00 3.25 3.25 69 1009.2
20260506174559 17 229 0.0 6.4 0.00 3.25 3.25 68 1009.1
20260506174047 17 233 1.6 6.4 0.00 3.25 3.25 67 1009.1
20260506173547 17 174 3.2 8.0 0.00 3.25 3.25 66 1009.1
20260506173122 17 224 1.6 9.7 0.00 3.25 3.25 66 1009.1
20260506172546 17 118 1.6 9.7 0.00 3.25 3.25 67 1009.0
20260506172046 17 142 1.6 8.0 0.00 3.25 3.25 70 1009.0
20260506171552 18 218 1.6 6.4 0.00 3.25 3.25 69 1008.9
20260506171047 18 232 0.0 3.2 0.00 3.25 3.25 72 1008.8
20260506170550 18 0 0.0 4.8 0.00 3.25 3.25 71 1008.9
20260506170056 18 0 0.0 4.8 0.00 3.25 3.25 69 1008.9
20260506165547 18 255 0.0 3.2 0.00 3.25 3.25 70 1008.9
20260506165048 18 0 0.0 3.2 0.00 3.25 3.25 70 1008.9
20260506164552 18 0 0.0 4.8 0.00 3.25 3.25 70 1008.9
20260506164048 18 126 0.0 4.8 0.00 3.25 3.25 69 1008.8
20260506163547 18 140 1.6 6.4 0.00 3.25 3.25 67 1008.8
20260506163054 18 195 0.0 8.0 0.00 3.25 3.25 68 1008.9
20260506162546 18 219 1.6 16.1 0.00 3.25 3.25 69 1008.9
20260506162047 18 220 6.4 16.1 0.00 3.25 3.25 72 1008.9
20260506161600 18 176 0.0 3.2 0.00 3.25 3.25 78 1008.9
20260506161048 18 0 0.0 3.2 0.00 3.25 3.25 80 1008.8
20260506160547 18 226 0.0 3.2 0.00 3.25 3.25 79 1008.9
20260506160109 18 0 0.0 0.0 0.00 3.25 3.25 74 1008.8
20260506155548 18 0 0.0 1.6 0.00 3.25 3.25 77 1008.8
20260506155048 18 0 0.0 3.2 0.00 3.25 3.25 77 1008.8
20260506154602 18 0 0.0 4.8 0.00 3.25 3.25 76 1008.7
20260506154047 18 100 0.0 4.8 0.00 3.25 3.25 77 1008.6
20260506153546 18 55 1.6 4.8 0.00 3.25 3.25 77 1008.7
20260506153054 18 0 0.0 1.6 0.00 3.25 3.25 76 1008.7
20260506152546 19 2 0.0 1.6 0.00 3.25 3.25 75 1008.7
20260506152048 19 1 0.0 3.2 0.00 3.25 3.25 76 1008.6
20260506151555 19 0 0.0 6.4 0.00 3.25 3.25 77 1008.7
20260506151047 18 262 0.0 8.0 0.00 3.25 3.25 75 1008.7
20260506150547 19 223 1.6 8.0 0.00 3.25 3.25 75 1008.7
20260506150100 19 268 1.6 8.0 0.00 3.25 3.25 76 1008.7
20260506145548 19 142 0.0 3.2 0.00 3.25 3.25 78 1008.8
20260506145049 19 131 0.0 3.2 0.00 3.25 3.25 77 1008.9
20260506144612 19 263 0.0 6.4 0.00 3.25 3.25 77 1008.8
20260506144048 18 219 0.0 6.4 0.00 3.25 3.25 77 1008.8
20260506143548 18 215 0.0 9.7 0.00 3.25 3.25 76 1008.7
20260506143056 18 243 0.0 14.5 0.00 3.25 3.25 79 1008.8
20260506142550 18 120 3.2 14.5 0.00 3.25 3.25 78 1008.8
20260506142047 18 243 1.6 11.3 0.00 3.25 3.25 78 1009.0
20260506141556 18 89 3.2 11.3 0.00 3.25 3.25 79 1008.8
20260506141051 19 162 1.6 9.7 0.00 3.25 3.25 79 1008.9
20260506140547 19 96 1.6 9.7 0.00 3.25 3.25 80 1009.0
20260506140105 18 121 3.2 9.7 0.00 3.25 3.25 79 1009.1
20260506135548 19 158 1.6 8.0 0.00 3.25 3.25 79 1009.1
20260506135048 19 243 1.6 8.0 0.00 3.25 3.25 78 1009.1
20260506134601 19 165 1.6 11.3 0.00 3.25 3.25 81 1009.3
20260506134047 18 142 1.6 11.3 0.00 3.25 3.25 79 1009.4
20260506133547 18 208 3.2 8.0 0.00 3.25 3.25 76 1009.5
20260506133134 18 214 3.2 6.4 0.00 3.25 3.25 81 1009.6
20260506132549 18 172 1.6 6.4 0.00 3.25 3.25 83 1009.7
20260506132048 17 107 1.6 6.4 0.00 3.25 3.25 86 1009.8
20260506131554 17 153 0.0 11.3 0.00 3.25 3.25 88 1009.8
20260506131051 17 159 3.2 11.3 0.00 3.25 3.25 87 1009.7
20260506130547 17 83 3.2 11.3 0.03 3.25 3.25 88 1009.7
20260506130140 17 170 1.6 4.8 0.05 3.25 3.25 88 1010.0
20260506125549 17 269 0.0 3.2 0.05 3.25 3.25 89 1010.2
20260506125047 17 0 0.0 3.2 0.05 3.25 3.25 88 1010.0
20260506124554 17 134 0.0 3.2 0.08 3.25 3.25 90 1010.0
20260506124048 17 0 0.0 4.8 0.08 3.25 3.25 89 1010.0
20260506123548 17 0 0.0 4.8 0.08 3.25 3.25 88 1009.9
20260506123055 17 0 0.0 4.8 0.08 3.25 3.25 88 1010.0
20260506122547 17 158 0.0 4.8 0.08 3.25 3.25 89 1009.9
20260506122046 17 0 0.0 4.8 0.08 3.25 3.25 86 1009.7
20260506121556 17 169 0.0 4.8 0.08 3.25 3.25 84 1009.7
20260506121048 17 0 0.0 9.7 0.08 3.25 3.25 86 1009.6
20260506120547 17 0 1.6 9.7 0.03 3.20 3.20 85 1009.8
20260506120104 18 237 3.2 9.7 0.00 3.17 3.17 84 1010.1
20260506115547 18 338 1.6 11.3 0.00 3.17 3.17 83 1009.8
20260506115048 18 309 1.6 16.1 0.00 3.17 3.17 83 1009.8
20260506114603 18 222 4.8 16.1 0.00 3.17 3.17 81 1009.8
20260506114047 18 325 4.8 14.5 0.00 3.17 3.17 79 1009.8
20260506113547 18 251 4.8 17.7 0.00 3.17 3.17 77 1009.6
20260506113058 19 228 4.8 17.7 0.00 3.17 3.17 77 1009.6
20260506112547 19 220 4.8 17.7 0.00 3.17 3.17 75 1009.5
20260506112047 19 229 4.8 17.7 0.00 3.17 3.17 74 1009.5
20260506111554 20 185 1.6 9.7 0.00 3.17 3.17 75 1009.6
20260506111049 20 139 3.2 11.3 0.00 3.17 3.17 75 1009.6
20260506110547 20 217 1.6 11.3 0.00 3.17 3.17 76 1009.6
20260506110054 20 152 1.6 16.1 0.00 3.17 3.17 72 1009.5
20260506105547 20 127 3.2 16.1 0.00 3.17 3.17 73 1009.5
20260506105048 20 193 4.8 16.1 0.00 3.17 3.17 72 1009.5
20260506104600 20 141 3.2 11.3 0.00 3.17 3.17 76 1009.6
20260506104049 20 143 6.4 16.1 0.00 3.17 3.17 75 1009.7
20260506103549 20 71 3.2 16.1 0.00 3.17 3.17 76 1009.5
20260506103049 20 132 3.2 19.3 0.00 3.17 3.17 76 1009.7
20260506102549 20 205 4.8 19.3 0.00 3.17 3.17 76 1009.5
20260506102048 20 88 3.2 20.9 0.00 3.17 3.17 78 1009.4
20260506101550 20 150 3.2 20.9 0.00 3.17 3.17 80 1009.6
20260506101047 20 58 6.4 20.9 0.00 3.17 3.17 77 1009.5
20260506100547 20 229 3.2 19.3 0.00 3.17 3.17 83 1009.6
20260506100106 20 156 1.6 9.7 0.00 3.17 3.17 85 1009.4
20260506095547 19 259 0.0 9.7 0.00 3.45 3.17 88 1009.6
20260506095047 19 167 3.2 9.7 0.00 3.45 3.17 87 1009.7
20260506094600 18 309 0.0 6.4 0.00 3.45 3.17 91 1009.8
20260506094046 18 84 1.6 6.4 0.00 3.45 3.17 89 1009.8
20260506093550 18 98 0.0 9.7 0.00 3.45 3.17 94 1009.7
20260506093053 17 86 0.0 9.7 0.00 3.45 3.17 94 1009.8
20260506092549 17 103 1.6 8.0 0.10 3.45 3.17 93 1009.7
20260506092047 17 0 0.0 8.0 0.13 3.45 3.17 96 1009.8
20260506091553 16 123 1.6 4.8 0.15 3.45 3.17 96 1009.9
20260506091048 16 0 0.0 8.0 0.18 3.45 3.17 97 1009.8
20260506090546 16 0 1.6 8.0 0.23 3.45 3.17 96 1009.8
20260506090051 15 214 1.6 8.0 0.25 3.45 3.17 97 1009.9
20260506085547 15 214 1.6 6.4 0.25 3.51 3.17 97 1010.0
20260506085051 15 239 0.0 1.6 0.28 3.51 3.17 98 1010.0
20260506084554 15 0 0.0 1.6 0.28 3.51 3.17 97 1010.0
20260506084047 15 0 0.0 1.6 0.28 3.51 3.17 97 1010.0
20260506083548 15 125 0.0 1.6 0.28 3.51 3.17 97 1010.1
20260506083054 14 0 0.0 1.6 0.28 3.48 3.15 97 1010.1
20260506082547 14 0 0.0 1.6 0.18 3.38 3.05 97 1010.1
20260506082049 14 0 0.0 4.8 0.18 3.38 3.02 97 1010.0
20260506081606 14 97 0.0 4.8 0.18 3.35 3.00 97 1010.0
20260506081049 14 0 1.6 4.8 0.15 3.30 2.97 97 1010.1
20260506080549 14 0 0.0 8.0 0.13 3.28 2.92 97 1010.1
20260506073052 14 0 0.0 3.2 0.18 3.23 2.87 97 1010.0
20260506072547 14 0 0.0 3.2 0.18 3.23 2.87 97 1010.1
20260506072046 14 0 0.0 3.2 0.18 3.20 2.84 97 1010.0
20260506071551 13 0 0.0 3.2 0.18 3.17 2.82 97 1010.1
20260506071047 13 0 0.0 3.2 0.23 3.17 2.82 97 1010.2
20260506070546 13 0 0.0 3.2 0.28 3.15 2.79 97 1010.2
20260506062048 13 88 0.0 3.2 0.53 3.48 2.64 97 1010.4
20260506061551 13 0 0.0 3.2 0.53 3.48 2.62 97 1010.4
20260506061049 13 121 0.0 1.6 0.46 3.38 2.54 97 1010.5
20260506060549 13 0 0.0 1.6 0.43 3.35 2.51 97 1010.4
20260506051052 13 0 0.0 1.6 0.38 3.10 2.08 97 1010.4
20260506050548 13 0 0.0 1.6 0.46 3.07 2.06 97 1010.5
20260506045048 13 0 0.0 1.6 0.66 3.05 2.06 97 1010.7
20260506044556 13 0 0.0 3.2 0.69 3.02 2.03 97 1010.9
20260506044048 13 0 0.0 3.2 0.71 3.00 2.01 97 1010.8
20260506043548 13 212 0.0 4.8 0.71 2.97 1.96 97 1010.9
20260506043057 13 0 1.6 4.8 0.66 2.92 1.93 97 1010.7
20260506042549 13 93 1.6 3.2 0.61 2.87 1.88 97 1010.4
20260506042049 13 103 0.0 1.6 0.56 2.82 1.80 97 1010.6
20260506041553 13 0 0.0 3.2 0.51 2.77 1.78 97 1010.8
20260506041048 13 0 0.0 3.2 0.43 2.69 1.68 97 1010.9
20260506040552 13 217 0.0 8.0 0.30 2.57 1.57 97 1011.2
20260506040057 13 0 1.6 8.0 0.23 2.49 1.50 97 1011.1
20260506035548 13 105 1.6 8.0 0.18 2.44 1.42 97 1011.1
20260506035049 13 106 1.6 4.8 0.13 2.36 1.37 97 1011.0
20260506034610 13 153 0.0 4.8 0.10 2.34 1.32 97 1010.9
20260506034049 13 165 0.0 4.8 0.08 2.29 1.30 97 1010.9
20260506033548 13 172 0.0 4.8 0.10 2.24 1.24 97 1010.9
20260506033051 13 126 0.0 4.8 0.18 2.24 1.24 97 1010.9
20260506032547 13 130 0.0 3.2 0.18 2.24 1.24 97 1010.9
20260506032049 13 0 0.0 3.2 0.20 2.24 1.24 97 1010.8
20260506031554 13 0 0.0 3.2 0.25 2.24 1.24 97 1010.9
20260506031048 13 0 0.0 3.2 0.28 2.24 1.24 97 1010.8
20260506030548 14 0 0.0 3.2 0.30 2.24 1.24 97 1010.8
20260506030052 14 206 0.0 3.2 0.33 2.24 1.24 97 1010.9
20260506025549 14 0 0.0 4.8 0.33 2.24 1.24 97 1010.8
20260506025049 14 210 1.6 4.8 0.30 2.24 1.22 97 1010.9
20260506024555 14 218 0.0 1.6 0.30 2.21 1.22 97 1011.0
20260506024047 14 0 0.0 3.2 0.30 2.18 1.19 97 1010.8
20260506023551 14 0 0.0 3.2 0.30 2.13 1.12 97 1011.1
20260506023058 14 122 0.0 3.2 0.28 2.06 1.07 97 1011.0
20260506022548 14 92 0.0 3.2 0.28 2.06 1.04 97 1011.1
20260506022046 14 0 0.0 1.6 0.30 2.03 1.02 97 1011.1
20260506021553 14 0 0.0 3.2 0.33 1.98 0.99 97 1011.3
20260506021049 14 213 1.6 4.8 0.36 1.96 0.94 97 1011.4
20260506020547 14 227 0.0 4.8 0.36 1.93 0.94 97 1011.5
20260506020056 14 242 1.6 4.8 0.36 1.91 0.91 97 1011.6
20260506015549 14 217 0.0 1.6 0.41 1.91 0.91 97 1011.5
20260506015052 14 0 0.0 3.2 0.48 1.91 0.91 97 1011.4
20260506014552 14 0 0.0 3.2 0.53 1.88 0.89 97 1011.3
20260506014051 14 330 1.6 3.2 0.56 1.85 0.84 97 1011.2
20260506013550 14 0 0.0 3.2 0.56 1.80 0.81 97 1011.6
20260506013110 14 0 0.0 3.2 0.61 1.78 0.79 97 1011.7
20260506012549 14 0 0.0 1.6 0.61 1.75 0.74 97 1011.9
20260506012047 14 334 0.0 3.2 0.58 1.70 0.71 97 1011.9
20260506011557 14 334 0.0 3.2 0.56 1.65 0.64 97 1011.9
20260506011046 14 0 1.6 3.2 0.51 1.57 0.58 97 1011.8
20260506010548 14 21 0.0 1.6 0.46 1.55 0.56 97 1012.0
20260506010112 14 0 0.0 1.6 0.46 1.52 0.53 97 1012.2
20260506005546 14 0 0.0 1.6 0.43 1.50 0.48 97 1012.2
20260506005048 14 274 0.0 1.6 0.36 1.40 0.41 97 1012.2
20260506004556 14 232 0.0 0.0 0.28 1.35 0.36 97 1011.9
20260506004050 14 203 0.0 0.0 0.20 1.27 0.28 97 1011.8
20260506003551 14 0 0.0 0.0 0.18 1.22 0.23 97 1011.8
20260506003056 14 0 0.0 1.6 0.13 1.17 0.18 97 1011.6
20260506002549 14 203 0.0 1.6 0.08 1.12 0.13 97 1011.5
20260506002048 14 0 0.0 0.0 0.08 1.12 0.10 97 1011.6
20260506001602 14 0 0.0 0.0 0.08 1.09 0.08 97 1011.6
20260506001049 14 0 0.0 0.0 0.08 1.07 0.08 97 1011.6
20260506000549 14 0 0.0 1.6 0.08 1.07 0.08 96 1011.6
20260506000056 14 0 0.0 1.6 0.05 1.04 0.05 96 1011.8
20260505235548 14 0 0.0 1.6 0.05 1.04 0.05 96 1011.9
20260505235050 14 0 0.0 1.6 0.05 1.04 0.05 96 1012.2
20260505234555 14 89 0.0 1.6 0.05 1.04 0.05 96 1012.3
20260505234050 14 108 0.0 1.6 0.05 1.04 0.05 96 1012.3
20260505233548 14 0 0.0 1.6 0.03 1.02 0.03 96 1012.3
20260505233105 14 0 0.0 1.6 0.03 1.02 0.03 96 1012.2
20260505232550 14 282 0.0 0.0 0.03 1.02 0.03 96 1012.2
20260505232048 14 0 0.0 0.0 0.03 1.02 0.03 96 1012.3
20260505231554 14 0 0.0 1.6 0.00 1.02 0.00 96 1012.3
20260505231047 13 0 0.0 1.6 0.00 0.99 0.00 96 1012.3
20260505230547 14 281 0.0 1.6 0.00 0.99 0.00 95 1012.2
20260505230058 14 0 0.0 0.0 0.00 0.99 0.00 96 1012.3
20260505225548 13 0 0.0 0.0 0.00 0.99 0.00 96 1012.3
20260505225047 13 0 0.0 0.0 0.00 0.99 0.00 95 1012.4
20260505224555 13 0 0.0 0.0 0.00 0.99 0.00 95 1012.3
20260505224051 13 0 0.0 1.6 0.00 0.99 0.00 95 1012.4
20260505223547 14 0 0.0 3.2 0.00 0.99 0.00 96 1012.5
20260505223056 13 0 0.0 3.2 0.00 0.99 0.00 95 1012.5
20260505222548 13 277 0.0 3.2 0.00 0.99 0.00 95 1012.5
20260505222047 13 268 0.0 3.2 0.00 0.99 0.00 95 1012.7
20260505221552 13 243 0.0 1.6 0.00 0.99 0.00 95 1012.7
20260505221046 14 0 0.0 1.6 0.00 0.99 0.00 95 1012.8
20260505220616 14 0 0.0 0.0 0.00 0.99 0.00 95 1012.9
20260505220055 14 0 0.0 0.0 0.00 0.99 0.00 95 1012.9
20260505215547 14 0 0.0 1.6 0.00 0.99 0.99 95 1012.9